Starlink 31236

operational
NORAD ID: 58841 Int'l Des: 2024-017 Owner: SPXS Country: US Constellation: starlink
LEOCIRCULAR

Über Starlink 31236

Beschreibung wird geladen...

Live-Position

3D-Globus wird geladen...

Nächste Überflüge

Höhenverlauf

Altitude vs Time

uPlot chart will show altitude changes over time

Zweizeiliger Elementsatz

1 58841U 24017R 25353.60890173 .00000405 00000-0 25817-4 0 9998
2 58841 53.1597 216.4175 0001414 93.0512 267.0651 15.30185868107790
Epoch: 19. Dez. 2025 • Age: 12 hours

Aktueller Status

Höhe 482.8 km
Geschwindigkeit 7.62 km/s
Subsatellitenpunkt -24.18°S, 60.2°E
Startdatum 24. Jan. 2024
Alter 1.9 years
Typ internet

Technische Details

Klassifizierung Payload
Masse 730.00 kg
Trockenmasse 700.00 kg
Gesamtmasse 730.00 kg
Länge 0.30 m
Durchmesser 4.10 m
Spannweite 29.00 m
Form Box + pan
Hersteller SPXS
Bus-Typ Starlink V2M
Phasenstatus In Orbit
Besitzer/Staat SPXS/US

Große Konstellationen

Loading constellations...